GFSWCAN_con_3kmhel_096.txt.gz
Helicity
14 6 13 12 -1 -14 -22 -21 -23 -19 10 19 10 -6 -11 -16 -20 -57 -65 -66 -36 23 13 59 59 85 104 45 62 40 23 19 47 36 17 18 36 39 10 37 17 57 63 72 47 55 47 27 34 80 90 66 81 74
18 8 -2 -6 -24 -11 -10 -10 -13 -17 -16 -17 -7 -7 -12 -18 -26 -26 -66 -34 -36 32 21 45 18 41 82 66 34 -36 -74 -60 56 43 27 40 2 47 75 62 6 45 30 61 66 48 15 70 94 57 4 41 49 63
13 9 2 -0 -2 1 9 15 10 2 3 3 5 13 10 -15 -25 -29 -31 3 86 39 6 -25 11 17 8 48 24 -43 -63 -16 83 134 49 20 22 50 29 22 24 66 10 3 65 14 -9 -51 -2 -30 8 41 92 61
-0 -0 8 36 51 54 52 48 40 31 19 8 15 11 1 1 -3 10 18 146 115 134 65 -33 5 40 38 26 28 -11 -40 -96 88 -1 44 6 -2 -47 51 61 88 40 57 30 26 1 73 58 109 203 123 63 62 130
30 60 84 57 40 31 32 33 19 7 9 -0 -7 -0 17 -5 6 11 -3 78 120 96 11 48 2 23 5 7 29 41 18 8 35 12 11 13 14 26 17 22 13 72 19 42 47 79 48 17 74 14 28 86 163 95
81 72 48 44 39 43 41 38 50 35 -4 -20 -16 22 12 14 40 144 113 4 35 23 29 -37 16 31 29 8 16 9 5 15 34 27 -11 -3 25 34 22 18 37 56 105 36 16 83 28 11 38 128 70 63 74 64
78 80 124 136 102 61 28 25 16 39 41 13 24 27 17 56 154 123 74 12 74 4 26 9 9 -73 -33 27 23 36 25 82 71 39 19 6 57 33 21 13 40 17 79 32 36 96 116 134 60 29 73 111 47 37
114 95 42 -6 18 11 26 24 49 19 39 25 22 40 48 91 96 108 76 11 109 196 87 9 -19 -32 75 56 54 81 111 117 21 10 21 2 19 14 -17 16 12 24 83 81 116 96 53 35 80 138 85 42 29 43
61 13 21 -0 -3 41 26 26 30 30 35 19 12 39 74 116 108 61 30 43 129 123 49 -3 18 6 -6 41 127 129 118 6 1 -12 6 29 18 10 -3 53 89 89 83 72 72 58 78 98 90 90 60 71 84 71
15 6 6 7 -8 16 24 25 48 52 63 17 128 131 123 103 88 25 67 109 77 69 66 1 5 25 10 -6 60 96 104 40 -17 -49 76 41 -13 14 59 121 128 92 90 68 40 58 56 76 89 62 8 11 28 101
7 16 23 6 24 26 32 47 39 54 68 232 152 140 110 151 131 39 68 98 56 33 29 27 26 33 16 20 9 20 14 25 9 42 47 20 92 263 242 204 174 152 109 90 73 42 47 56 34 25 35 85 142 196
77 50 4 13 6 14 25 57 64 189 205 215 142 181 178 76 126 89 107 92 31 30 6 17 69 103 14 23 31 36 29 33 28 91 47 61 110 161 107 79 91 86 68 45 37 43 52 64 65 66 80 87 104 132
72 22 30 51 64 46 99 187 157 210 189 190 288 159 73 88 111 111 69 85 40 29 40 51 91 119 94 101 55 28 26 27 11 36 65 94 101 78 83 71 60 33 16 26 45 53 54 60 90 111 100 120 127 159
101 150 30 91 123 172 177 141 112 247 209 266 163 130 163 140 121 117 138 136 111 66 24 39 68 66 105 100 91 30 20 31 21 27 82 63 74 59 49 44 43 46 40 41 44 58 73 77 81 109 140 141 161 178
74 150 279 129 216 215 182 215 318 177 250 236 170 128 101 95 77 110 121 104 136 136 99 44 38 47 67 74 73 76 42 69 149 125 106 83 86 65 36 29 34 41 39 33 41 39 49 71 101 137 176 211 209 227
93 90 142 164 162 200 206 159 177 194 189 153 119 105 93 51 86 105 138 118 134 124 105 85 39 56 73 73 66 118 175 156 79 68 69 58 50 59 55 50 37 46 68 79 68 64 74 98 120 153 187 210 212 213
56 105 77 43 54 79 124 179 120 105 92 91 81 181 112 112 121 153 154 131 137 102 126 129 101 130 86 109 65 95 125 114 101 74 71 61 60 68 64 65 67 69 78 82 102 117 118 132 154 193 248 254 280 315
19 -0 60 47 58 104 135 139 171 99 73 96 72 94 87 130 114 120 121 183 186 138 137 93 158 176 180 134 66 123 148 73 76 66 64 62 64 75 93 85 79 75 76 78 78 81 92 109 143 156 161 175 231 285
23 15 61 62 37 45 27 45 29 13 31 29 35 75 103 101 106 126 162 164 152 171 101 92 82 111 91 114 128 122 150 129 68 37 48 61 72 57 40 41 55 83 123 110 109 106 102 109 98 101 108 120 147 145
67 40 80 98 59 43 20 11 29 5 40 56 74 85 88 95 99 107 131 192 188 160 144 84 66 82 81 102 114 113 83 82 91 68 81 42 18 25 37 38 33 37 55 68 74 76 87 106 104 95 86 87 98 103
33 70 49 13 37 44 15 27 32 40 43 49 50 49 47 60 91 108 126 157 169 162 143 147 150 147 153 140 124 120 133 129 131 137 118 58 46 61 59 49 47 48 52 57 60 69 76 82 73 70 73 72 60 60
22 54 23 48 37 38 27 84 15 40 49 28 43 63 58 81 104 120 115 160 136 178 158 151 151 157 145 161 145 143 149 97 100 91 103 115 119 107 109 74 76 90 77 60 53 53 50 39 42 47 46 36 42 47
29 28 34 27 1 7 40 91 59 46 3 -0 1 -6 7 -1 64 74 94 143 164 172 159 153 128 97 114 90 102 135 115 93 106 109 87 88 96 88 84 84 68 76 84 78 54 53 54 53 57 60 65 71 73 78
53 42 42 27 24 -1 27 43 49 29 40 -5 -1 17 44 53 58 84 100 107 102 101 107 112 137 62 59 80 97 116 157 72 88 108 85 80 94 97 74 76 74 72 63 50 51 55 53 51 46 52 59 74 80 86
14 46 45 2 38 6 -2 -5 4 -8 9 12 6 13 16 19 42 50 47 46 52 62 74 59 56 82 82 70 76 86 107 90 91 106 148 114 74 72 87 96 111 104 52 47 56 56 64 66 73 79 76 75 84 93
10 29 7 5 12 -8 -9 -3 -10 -6 -3 12 17 14 8 31 54 72 44 35 41 50 63 82 87 73 84 88 86 90 92 87 59 102 119 109 164 147 98 94 100 112 92 72 62 72 80 82 85 92 96 100 96 90
-1 6 -0 26 -14 -2 19 30 17 19 31 31 27 30 34 57 60 44 34 43 55 66 65 74 91 95 91 82 69 54 56 65 71 67 57 72 89 102 117 101 107 92 63 64 65 64 70 70 71 74 75 72 72 73
-0 -25 17 16 66 47 37 47 52 53 41 14 21 35 37 35 38 26 32 48 55 56 58 57 56 57 68 67 56 55 54 43 36 29 22 26 62 76 69 56 56 73 90 113 72 58 58 57 54 47 56 67 66 52
63 51 64 130 99 96 107 73 59 30 -7 -1 6 11 7 4 17 42 52 50 46 55 72 70 62 47 50 51 54 60 63 82 93 66 70 71 60 65 61 67 70 52 35 57 105 107 95 75 62 63 61 55 61 55
94 70 109 145 145 106 88 49 62 29 18 5 3 35 47 22 31 40 58 73 82 82 76 73 64 64 57 57 58 60 63 74 89 105 93 81 61 51 49 54 51 52 52 40 42 49 48 54 66 65 59 41 39 49
121 136 205 198 166 93 63 47 42 38 26 27 7 22 11 1 17 39 59 59 62 59 70 72 70 67 65 62 71 61 62 53 57 73 64 52 51 49 47 41 44 45 44 45 47 53 45 37 52 50 50 75 80 64
145 141 156 160 84 26 19 9 18 27 14 12 12 10 6 18 28 43 47 54 72 81 76 73 69 63 56 55 52 52 59 50 45 40 59 56 47 39 34 33 34 43 48 48 53 50 50 58 54 63 59 50 64 77
216 196 215 177 94 34 4 12 8 6 -1 2 -0 -5 2 21 51 63 70 78 96 92 82 73 66 55 48 41 37 33 34 31 34 37 38 41 42 40 33 38 38 37 40 47 49 48 50 51 55 64 58 60 56 52

GFSWCAN_con_3kmhel_102.txt.gz
Helicity
45 45 67 31 53 29 19 36 30 31 23 17 6 -25 -37 -10 22 68 48 75 69 68 -1 6 30 45 44 21 19 -4 31 35 49 8 13 10 4 4 8 -1 4 51 119 127 86 49 59 73 70 95 96 84 77 45
43 40 37 35 46 32 21 33 21 20 13 10 -28 -37 -44 38 31 50 47 -0 33 -52 -59 -4 15 9 -5 13 -7 19 -7 4 19 20 -0 -39 -15 -63 -43 28 -25 115 93 157 72 -11 32 77 70 60 213 79 76 78
51 43 42 24 38 38 28 21 15 7 8 -33 -40 -36 -0 7 -4 -24 2 42 31 -38 -58 -31 -30 38 40 67 40 -14 8 -12 -14 -78 -11 3 -26 -94 -71 -59 94 95 58 85 76 48 80 81 85 53 72 75 90 89
40 49 29 20 16 35 24 13 10 1 -2 -12 -8 -3 4 2 -14 -38 -27 19 13 32 4 -10 -25 28 37 11 25 -22 -3 24 -27 -66 -93 -48 -20 -25 -73 -28 109 34 40 -6 20 40 57 85 108 101 124 129 134 127
41 60 24 7 35 29 10 13 7 -12 7 16 15 11 5 -12 -30 -49 -39 -15 32 32 -9 46 64 64 39 -29 -52 -57 15 -4 7 -41 -12 -19 7 -29 -40 3 63 50 50 9 35 86 48 64 174 143 128 102 79 38
31 10 21 20 9 2 13 1 -8 15 27 31 25 25 12 -10 -21 -8 -76 -21 40 61 76 25 -13 -7 28 43 -38 -16 -8 -5 17 -16 -8 24 1 -9 -31 -20 -62 -59 -54 -52 9 97 104 152 176 198 114 65 42 38
17 5 3 -5 -5 17 17 35 32 24 29 36 42 26 2 -24 -27 -4 -11 56 80 181 144 66 45 29 23 26 53 66 39 24 -0 1 -4 13 6 -21 -3 14 -4 -29 -12 3 112 22 56 117 150 166 119 62 77 77
23 17 23 40 42 41 64 69 54 36 20 18 -15 -2 -2 -11 18 16 48 25 84 142 56 7 8 23 37 11 26 43 55 44 28 15 32 -2 -9 -20 -24 2 56 67 34 23 -7 15 20 7 48 97 87 106 32 21
31 35 44 46 66 52 37 35 66 81 73 11 -9 6 70 78 34 39 43 40 83 -7 16 20 29 7 -16 19 33 63 87 52 43 10 40 10 -4 -24 27 57 74 91 60 35 11 52 46 45 55 57 44 67 64 26
62 54 42 47 41 38 65 81 121 22 18 22 131 168 125 82 16 105 67 51 39 -18 -24 -35 -20 6 -20 45 47 37 96 64 54 50 57 41 49 165 136 140 147 124 83 60 -11 8 22 31 27 29 60 65 73 68
79 76 76 95 150 190 102 30 23 34 157 322 253 195 118 61 120 64 61 28 17 -13 -29 11 40 -18 -39 31 48 -20 11 -1 17 17 -2 -12 60 136 161 164 160 128 88 54 45 35 41 14 23 48 75 86 77 88
102 98 118 113 45 15 39 32 67 346 281 275 247 199 146 102 82 65 64 70 15 -7 -24 -34 -13 1 -30 14 2 7 -3 -3 15 60 24 27 107 143 115 92 57 38 46 53 60 63 69 63 60 72 79 81 76 82
2 10 4 -5 5 32 19 124 217 216 192 278 229 153 121 97 96 101 5 80 50 19 31 27 34 47 43 -15 -1 15 25 8 15 21 42 62 74 69 49 34 25 26 18 30 30 27 34 49 62 82 73 70 79 108
25 13 15 35 10 34 135 189 146 167 334 229 156 113 115 104 111 92 97 65 55 53 69 108 90 46 71 -8 -6 12 42 34 29 22 6 7 46 21 11 7 11 24 37 23 9 16 30 48 58 75 87 92 103 121
28 -6 38 63 66 176 165 156 256 349 282 157 120 102 98 82 97 66 55 65 88 73 76 91 74 38 40 20 12 30 21 24 46 38 41 66 72 42 35 26 28 27 24 28 25 28 41 51 62 87 119 141 164 189
101 118 121 188 281 253 220 319 385 257 175 135 93 87 95 105 121 149 109 58 113 120 93 50 45 33 27 46 74 87 72 53 70 89 78 62 46 39 34 20 12 16 18 13 28 38 62 96 104 104 159 193 217 231
197 239 277 310 324 315 324 368 263 158 77 66 85 129 102 123 105 92 120 122 123 106 102 88 65 64 57 81 97 102 87 93 103 50 55 18 7 26 26 27 21 18 28 50 35 36 60 68 88 124 163 177 199 211
195 164 176 201 354 383 304 203 120 75 46 94 75 97 88 102 95 124 150 174 133 125 131 110 113 125 122 102 108 150 163 119 109 73 56 25 18 18 30 46 68 73 69 66 40 24 53 80 92 99 125 135 166 177
127 132 110 57 80 66 221 175 100 35 76 82 61 87 77 68 101 122 165 183 178 186 133 118 103 112 120 129 140 151 155 118 53 64 47 24 29 24 27 45 66 88 91 102 104 84 66 62 73 84 83 94 123 107
77 118 71 71 68 23 85 102 80 71 39 42 57 88 72 75 78 113 170 205 180 143 142 121 86 125 101 115 117 99 100 116 77 70 60 34 5 28 21 31 43 50 85 99 100 98 105 105 94 73 61 65 90 90
81 86 105 114 106 53 20 25 21 -7 10 17 -21 30 38 92 116 119 141 163 142 143 143 113 97 119 134 152 166 160 148 150 155 110 71 77 81 74 72 81 85 91 103 100 94 84 84 83 46 40 46 47 44 40
83 62 68 69 45 34 1 47 15 18 38 31 21 40 33 63 89 112 103 159 147 187 143 126 113 127 165 197 170 165 151 138 139 138 152 121 113 111 108 90 80 93 79 76 75 73 65 29 24 25 31 26 26 26
61 66 68 56 8 7 21 70 46 31 -2 4 21 1 -1 3 50 68 86 151 149 136 115 97 101 88 109 126 169 180 141 126 131 113 100 98 98 99 94 85 77 88 89 80 47 38 51 25 27 31 35 43 44 47
57 32 17 17 -0 -8 27 20 34 15 4 -0 -13 -14 -12 10 50 58 81 86 86 92 95 72 13 41 64 107 123 123 119 81 100 124 108 89 99 112 106 96 74 69 66 64 64 63 54 47 44 44 47 58 64 67
-5 47 6 8 32 -0 -8 3 2 -14 1 7 7 8 13 14 24 31 26 16 15 40 64 74 97 71 55 63 86 105 101 81 96 116 119 77 61 83 106 115 108 80 61 72 67 59 44 38 36 39 52 65 67 74
-19 40 -12 7 23 -12 6 -4 -8 8 7 -0 6 1 -6 23 47 49 22 15 16 39 60 60 44 67 75 57 76 86 69 52 66 96 106 104 108 75 80 94 98 98 68 52 65 78 86 87 85 80 75 64 68 88
-6 15 22 25 2 -4 -11 2 -1 -13 4 20 5 9 26 31 27 8 13 7 22 10 27 52 73 78 76 77 71 66 67 64 61 67 66 95 106 86 65 64 74 54 53 59 59 64 67 69 72 73 74 71 58 61
6 -4 -17 37 -23 -3 1 -11 1 22 12 -11 -5 2 25 28 3 -20 -11 -7 10 33 56 64 65 65 70 64 56 52 52 55 59 51 57 89 103 107 88 60 55 81 75 65 53 41 38 39 43 56 65 65 63 47
-8 -14 -1 32 18 8 17 33 26 -10 -50 -47 -14 -6 -18 -31 -26 4 8 22 45 56 74 83 83 78 77 70 86 87 71 77 81 80 88 56 58 78 83 81 62 55 47 60 78 56 36 34 43 53 55 64 64 67
15 2 12 62 87 65 44 34 -4 -28 -28 -12 -21 29 77 46 31 26 42 68 100 98 85 97 90 98 75 71 65 88 109 107 111 78 70 51 36 31 47 62 71 63 41 51 72 82 96 91 81 74 77 74 73 80
48 57 102 168 160 100 83 68 67 60 29 32 24 45 7 -9 8 11 42 48 92 107 123 112 102 69 104 89 66 55 53 55 61 77 76 67 62 69 73 77 65 58 60 68 68 68 66 58 61 65 77 83 77 64
89 90 192 188 124 26 24 70 62 61 19 13 -4 -12 -11 -7 -6 -9 -5 41 127 124 96 97 103 67 48 54 51 46 49 36 47 50 55 54 55 49 49 50 52 58 70 73 67 63 76 94 85 80 75 78 72 68
225 204 271 229 138 53 22 52 37 24 7 1 -9 -6 -1 23 34 31 31 57 75 102 106 86 69 56 59 60 47 31 27 28 31 41 45 46 47 46 48 45 42 52 67 69 59 58 73 81 75 74 78 81 78 73

GFSWCAN_con_3kmhel_105.txt.gz
Helicity
52 48 41 43 55 67 47 23 27 30 26 7 3 15 5 12 18 93 65 70 100 77 46 42 46 53 54 48 26 31 47 30 25 40 3 28 9 7 35 9 18 -13 -2 80 111 71 26 64 105 109 128 98 61 77
73 42 48 39 34 52 55 40 22 29 21 20 7 3 9 10 -13 58 43 64 81 72 41 33 33 5 17 36 30 39 33 0 14 25 -21 -6 71 3 4 -20 -45 -1 62 60 85 44 -3 50 73 98 139 75 95 82
66 48 31 27 14 23 37 29 19 25 17 18 6 -1 6 -9 -33 29 44 48 82 54 13 20 30 96 46 53 46 32 19 11 3 -18 -54 20 23 21 -11 -64 -53 63 50 53 73 59 28 75 80 58 97 154 155 116
73 70 43 41 31 27 43 31 24 21 24 12 2 0 -13 -11 -34 -35 -7 37 71 27 -54 21 -24 22 27 25 21 30 75 57 9 2 -28 19 -13 -59 7 -18 -18 153 41 63 71 73 140 125 163 104 112 108 99 114
64 73 52 39 36 15 35 34 23 20 18 5 2 14 -9 -3 -10 -30 -22 -17 30 8 -24 67 58 124 59 21 -9 3 -6 48 34 -3 -22 -6 -40 -2 22 -57 -37 19 185 19 23 49 87 103 241 145 168 126 86 61
52 48 43 48 30 14 -11 9 26 14 13 1 1 22 23 1 -20 18 -57 -12 54 67 -21 -12 17 17 32 0 9 17 25 70 33 7 -1 -12 -8 -12 0 -18 -17 -3 26 21 25 69 188 209 362 280 173 130 116 78
46 35 29 39 42 29 28 26 24 14 5 -4 13 30 7 -12 -19 18 -47 7 60 155 100 58 63 31 15 2 24 47 44 29 26 18 16 1 -4 -20 28 23 0 6 -17 -35 -22 26 203 282 242 162 137 122 49 31
38 32 28 12 3 21 23 25 19 14 13 20 26 10 2 -5 16 -83 -95 11 83 198 58 18 24 21 17 33 33 65 85 60 32 41 39 22 -3 -16 -3 8 8 24 18 5 -5 -5 -16 16 54 62 75 77 47 58
21 33 27 14 9 7 13 23 28 43 22 33 19 1 35 76 44 -26 -22 70 96 55 75 17 51 47 29 58 61 31 56 37 25 34 83 34 -5 -2 65 46 41 29 10 6 -19 2 11 3 17 24 30 61 36 42
12 22 32 29 29 28 34 44 46 59 75 61 16 68 80 45 17 32 45 11 38 66 16 7 10 8 -24 -5 14 20 41 33 9 18 68 53 24 162 137 133 106 56 22 6 -32 -14 5 3 7 20 28 49 66 69
27 32 37 33 32 37 50 36 31 41 42 77 91 146 85 58 85 37 52 35 43 -49 -35 6 72 30 -4 25 46 11 31 10 25 43 27 2 41 153 151 140 113 93 57 38 40 39 33 27 30 42 70 90 91 89
55 69 75 69 57 44 23 55 86 110 160 146 186 231 170 112 90 83 78 75 56 -38 -21 -15 -4 12 -17 4 29 -14 8 19 3 42 32 25 88 145 116 94 79 70 64 49 41 38 36 41 45 47 53 67 73 74
98 88 95 74 50 61 97 80 90 150 192 325 283 198 134 114 114 58 -25 33 42 -7 4 14 -17 -10 30 -13 1 3 16 3 7 20 19 32 36 52 52 41 26 34 29 34 36 33 28 30 41 46 43 58 62 82
84 80 88 74 110 118 39 119 133 184 387 248 223 176 108 124 108 82 74 79 44 26 16 7 31 4 26 15 1 10 16 42 31 3 11 24 1 27 15 15 -2 1 11 14 13 19 25 30 30 47 60 69 76 92
33 49 39 37 36 49 127 127 180 339 340 258 181 112 122 105 107 83 65 91 82 56 35 50 67 40 36 6 -6 2 9 7 25 15 30 44 26 11 22 10 3 5 6 6 -3 2 12 20 33 57 86 100 112 126
42 60 87 52 70 153 178 261 382 325 253 178 122 93 145 94 89 85 81 75 95 93 69 52 53 37 23 21 23 28 11 22 25 56 61 57 52 37 27 14 -3 -19 -12 2 21 23 29 57 70 62 114 154 151 151
95 185 81 147 308 304 296 389 337 235 165 129 81 111 101 123 98 108 95 82 65 104 80 76 62 64 42 54 61 59 66 52 67 72 52 37 36 12 9 24 20 3 8 9 15 30 40 55 73 93 121 123 138 158
221 232 300 309 310 444 421 238 141 90 91 100 51 86 80 89 71 95 133 161 118 102 120 105 89 86 80 70 74 98 134 127 94 61 51 47 43 41 34 22 13 18 25 31 36 32 30 50 63 61 85 103 127 142
214 259 225 194 251 340 174 161 135 51 49 55 66 79 67 64 101 111 130 150 163 168 123 126 93 78 93 111 113 126 116 66 46 50 50 39 9 -3 -11 1 23 45 59 70 67 51 46 60 63 62 59 67 84 82
207 157 157 181 152 128 75 61 58 42 50 44 58 88 75 64 83 124 170 206 192 157 143 127 119 105 95 108 111 86 76 76 79 64 57 53 40 31 31 31 37 38 64 87 94 95 96 94 70 54 47 49 63 67
180 194 121 82 143 67 56 59 45 43 64 47 26 45 36 80 98 114 118 138 119 133 146 145 147 141 131 139 148 130 133 132 125 97 77 85 80 74 71 63 65 70 79 83 96 95 94 87 57 51 53 51 41 34
150 115 145 64 34 40 8 42 -14 11 20 3 11 27 13 37 66 95 92 133 144 166 134 112 123 131 150 162 155 154 131 130 128 123 133 104 109 105 98 72 70 68 62 69 75 77 77 57 46 45 46 39 35 34
93 84 74 50 -1 -2 -10 24 11 25 -12 13 16 -1 -9 -17 37 57 69 106 128 126 114 117 119 131 142 135 120 144 128 99 107 99 90 84 84 79 74 72 58 72 78 74 57 59 68 43 42 46 46 49 53 59
81 47 14 -9 -24 -13 25 24 24 5 -4 -1 -22 -25 -15 -11 43 55 67 94 83 96 108 70 53 58 66 94 104 96 87 62 74 96 88 81 91 98 90 87 68 64 65 62 64 57 51 56 46 55 59 63 67 67
-7 43 1 -8 13 -17 -6 6 4 -21 2 2 1 -6 11 18 29 36 38 16 21 43 59 80 82 70 64 64 80 86 78 79 84 99 108 86 73 85 97 95 94 75 52 66 60 57 51 46 46 47 49 61 65 72
-26 36 -9 12 27 -7 7 -10 -11 4 23 -5 -3 -5 -4 24 35 46 16 8 14 9 16 37 45 69 82 65 68 70 56 48 61 78 92 86 75 61 67 81 80 79 69 40 58 66 68 65 58 56 57 56 61 72
-10 6 12 36 17 5 -5 -3 21 -9 -11 11 19 13 13 24 26 10 5 3 26 20 13 19 44 53 53 55 54 49 47 53 60 60 63 90 94 78 61 57 63 43 40 41 43 46 51 59 65 66 62 64 59 56
3 16 -13 48 -19 3 32 6 -5 7 19 2 0 4 26 31 10 -17 -19 -6 41 62 88 85 72 63 69 64 53 50 55 52 60 48 52 75 85 80 70 60 61 67 49 41 31 33 36 37 43 46 49 52 51 44
29 32 -15 28 21 5 -5 0 12 -7 -39 -38 -2 5 -9 -29 -36 -18 4 23 47 73 90 89 63 56 65 68 80 71 66 67 83 69 56 42 46 50 70 50 45 40 41 54 70 34 31 35 35 43 46 50 47 56
1 -2 -5 -1 10 21 41 47 13 -15 -28 -20 -25 11 43 22 -13 -28 32 42 48 63 74 82 68 77 63 64 60 72 79 70 58 63 65 45 31 23 29 40 46 41 27 42 56 70 91 91 84 75 74 74 68 72
36 29 44 79 100 104 77 60 66 73 39 46 35 49 7 -21 -24 -19 -4 23 77 76 100 107 105 90 100 67 61 56 47 47 55 61 54 45 34 33 34 33 32 34 39 49 54 56 58 65 67 75 79 75 71 65
80 49 128 189 159 51 117 118 98 91 46 35 4 -19 -14 -17 -20 -20 -8 42 62 76 66 90 124 100 75 67 59 52 57 48 50 50 53 50 45 36 31 31 28 38 56 55 50 50 61 72 71 70 64 65 67 64
194 198 260 255 179 99 76 107 82 63 37 21 5 -7 -5 15 18 10 3 18 56 89 93 89 87 80 67 66 53 40 39 37 33 41 47 44 42 37 37 38 37 48 62 58 53 51 61 63 69 72 73 67 61 57

GFSWCAN_con_3kmhel_111.txt.gz
Helicity
61 54 56 13 24 52 88 75 44 58 38 38 51 49 49 32 38 129 81 65 126 128 65 74 43 54 65 59 47 41 39 40 34 46 35 33 8 38 19 45 60 48 43 0 5 -3 5 110 87 37 26 15 11 31
64 19 29 88 38 58 67 79 79 68 45 18 39 44 34 26 40 117 93 80 100 116 43 28 9 24 48 52 24 18 26 40 41 24 14 19 25 -5 73 104 26 34 -5 -23 11 25 46 68 113 74 52 16 42 5
71 17 33 93 62 77 82 81 100 68 29 48 38 32 18 11 22 86 97 108 101 79 20 -1 26 48 54 75 84 54 29 29 36 21 9 4 11 7 42 67 54 28 3 57 4 49 29 85 50 33 73 85 124 103
45 36 15 28 54 92 59 59 122 54 41 48 33 28 32 3 28 76 90 83 86 56 11 15 21 -7 8 44 80 112 74 55 54 24 -6 0 -1 -15 12 80 144 61 110 95 20 31 41 157 137 42 106 146 161 225
40 48 8 -37 39 66 63 25 17 18 54 26 14 34 18 -1 12 84 91 45 90 43 20 23 7 38 32 91 95 68 62 26 32 22 2 7 -4 -29 -29 34 29 15 38 29 64 46 29 103 159 133 169 172 134 275
29 69 35 50 39 57 59 57 76 96 68 19 4 29 24 20 91 74 39 29 46 52 -6 -16 -5 11 24 40 61 90 81 62 60 22 14 -5 5 -3 -6 21 17 19 -28 -45 -14 65 74 57 162 184 148 137 136 155
29 56 13 12 94 79 58 59 75 85 72 28 11 16 -1 16 68 79 20 37 55 125 -26 -38 -10 21 46 90 96 72 74 48 45 31 29 27 33 -5 -19 30 29 -2 -11 -27 13 -11 120 192 154 153 205 141 163 172
31 45 19 23 23 52 52 32 47 49 35 24 15 20 -8 21 41 16 -8 31 88 63 26 -20 -11 3 21 26 28 66 73 61 14 47 68 22 22 -1 18 22 -5 4 -9 4 -30 -34 -35 18 44 59 146 214 188 126
24 47 38 87 74 70 59 48 34 69 60 5 11 25 54 50 19 15 3 8 39 -20 -21 -37 -18 -1 -6 14 29 39 88 70 77 58 60 19 5 -3 30 24 17 5 -16 -15 -48 -24 -36 -32 -11 23 44 105 165 198
20 16 32 60 61 51 51 45 18 13 7 8 103 109 26 -25 -1 26 50 23 -20 -19 22 -41 10 -6 41 24 26 44 92 52 28 30 50 20 6 95 106 111 73 36 9 -4 -34 -29 -24 -26 -9 -10 2 3 28 30
36 43 52 65 52 38 18 24 25 35 49 147 85 69 40 40 60 35 66 67 -8 -26 -12 19 133 78 -16 23 22 -12 -16 55 4 13 12 -13 1 99 97 92 76 52 38 19 3 -8 -6 -2 1 24 47 64 65 54
19 32 37 40 31 27 34 32 35 127 94 75 46 31 68 46 57 77 86 36 2 -12 14 34 8 15 3 10 20 22 4 -20 14 3 3 28 56 57 60 63 63 49 34 28 22 0 -3 14 21 16 23 41 57 63
16 18 16 7 6 9 14 10 19 77 41 13 61 57 73 75 70 57 77 72 35 26 28 8 -4 -9 -4 20 21 7 -3 12 38 8 30 25 17 21 25 21 20 24 18 25 35 28 16 10 28 37 23 21 22 49
14 8 -1 -6 3 14 18 28 58 33 41 88 66 63 66 43 48 52 80 68 76 51 3 -15 11 8 -5 -13 -6 -1 -9 23 31 21 20 27 35 26 21 11 16 23 11 7 19 31 33 34 30 38 54 74 82 91
10 6 6 17 24 41 16 56 30 74 68 75 76 32 21 43 73 97 90 93 115 81 18 9 8 9 17 10 3 -5 -7 4 26 25 29 42 39 29 30 24 24 29 32 34 19 21 23 24 34 50 76 86 90 97
33 19 38 20 35 32 35 42 93 105 16 63 81 33 51 78 83 103 104 89 101 71 47 28 18 15 9 42 20 28 2 5 33 47 50 44 44 40 34 29 19 14 22 20 24 33 37 46 59 58 73 92 102 101
26 54 2 15 35 38 44 115 78 -40 25 54 87 115 89 97 113 91 78 70 72 73 59 43 10 59 56 47 34 39 37 39 51 60 54 56 49 46 32 26 27 29 18 6 -9 2 6 13 19 27 45 58 69 77
33 44 23 38 40 242 197 132 63 6 41 103 95 112 102 99 88 54 70 69 72 86 80 70 84 71 53 43 41 48 75 97 99 82 69 56 51 48 40 35 33 29 26 25 27 21 15 8 3 6 21 30 43 64
88 10 -2 69 160 187 156 100 102 20 38 99 105 86 79 82 99 94 71 75 65 78 65 66 75 79 87 96 96 98 104 93 85 79 87 86 58 37 24 34 34 36 38 34 33 27 26 37 35 36 37 45 66 77
171 190 152 122 199 253 136 124 109 40 58 48 72 59 52 47 50 73 100 102 95 91 106 102 92 75 85 114 127 118 107 91 91 99 101 96 60 59 80 70 67 60 68 71 67 60 56 70 61 55 51 53 65 70
311 311 234 239 233 133 76 115 68 42 65 71 45 51 48 60 60 64 71 92 87 98 100 113 121 128 137 147 149 143 169 156 145 132 124 116 103 90 83 81 71 70 78 75 84 87 88 90 59 46 45 44 29 17
258 245 226 177 97 72 40 94 27 33 51 43 44 40 33 21 30 46 55 109 112 111 105 98 107 121 149 158 154 158 135 137 138 137 141 108 108 100 90 74 71 78 78 76 73 78 77 54 40 34 33 29 24 23
178 186 161 104 1 4 18 58 8 12 -19 -4 6 -8 -14 -28 -31 50 62 68 92 92 82 91 99 109 115 111 116 132 120 95 106 111 112 109 109 103 98 97 85 90 96 94 64 69 66 40 30 35 25 28 33 40
120 60 32 15 1 -6 22 11 15 -8 -11 -14 -23 -26 -25 -9 16 33 45 63 79 71 72 62 50 58 68 83 93 90 90 73 94 114 103 92 107 110 98 96 92 87 69 54 61 57 49 45 39 40 39 41 41 43
-6 45 -2 -11 8 -35 -25 -4 10 -7 -11 -1 -18 -26 -26 -15 -9 4 20 25 16 21 19 26 47 51 61 55 63 75 73 64 79 98 97 80 68 66 78 78 81 80 57 51 46 40 36 31 32 32 35 37 41 47
-26 36 -17 -8 15 -23 -12 -28 -13 -18 -17 -21 -18 -17 -18 -5 6 22 10 5 4 8 11 27 46 63 67 58 63 62 61 57 72 90 86 78 76 64 62 66 62 67 68 46 37 30 26 26 25 27 33 35 39 40
-17 9 10 30 24 8 -6 7 3 -13 -16 -1 7 4 1 13 24 3 -6 -11 5 10 17 23 32 54 71 72 71 60 51 51 65 77 70 75 76 74 71 68 66 48 40 42 44 41 37 32 24 24 29 31 27 26
-9 6 -2 47 29 35 -16 -3 -8 -5 0 -3 10 -1 19 25 18 -11 -28 -20 31 56 58 55 57 58 65 67 63 74 88 84 94 82 69 70 67 64 62 54 44 37 35 34 33 33 40 42 45 43 39 37 37 33
4 51 52 63 48 15 -5 -6 -1 -8 -3 -7 -1 9 8 -9 -20 -18 -9 4 27 56 68 73 71 68 84 81 74 59 58 63 75 76 67 56 52 52 50 47 48 49 51 53 65 60 54 51 50 51 52 48 46 48
54 76 46 42 30 -18 7 7 16 5 2 -1 -2 29 55 36 4 -16 9 16 26 34 36 49 60 66 85 99 106 108 89 61 51 63 62 55 51 43 44 45 45 48 49 53 54 58 72 71 63 58 60 60 57 58
73 54 29 28 3 28 53 81 66 44 18 45 91 89 76 30 0 -18 -13 -4 29 60 75 66 67 73 102 100 98 104 97 78 82 83 73 65 54 47 43 40 36 33 37 42 46 47 48 54 55 57 60 60 57 54
73 33 28 18 58 19 90 76 65 104 111 102 80 48 50 34 11 -23 -30 20 39 43 34 61 76 81 77 80 75 69 72 90 79 71 65 55 46 35 29 30 33 34 39 43 44 45 46 55 54 53 53 55 53 52
82 75 63 116 119 92 80 121 109 99 104 86 69 59 47 50 44 9 -4 -5 26 45 63 65 90 117 108 96 87 75 67 61 53 50 49 44 38 37 35 31 30 32 36 34 32 30 39 42 43 44 43 42 40 39

GFSWCAN_con_3kmhel_114.txt.gz
Helicity
108 129 128 128 92 70 66 73 101 87 83 72 29 22 46 45 57 86 66 50 84 71 47 62 48 47 41 35 28 30 38 52 39 21 28 38 19 30 22 38 61 43 44 16 28 -2 -2 60 40 70 69 77 35 61
80 95 108 105 91 69 79 65 123 102 83 71 45 14 48 45 44 47 84 56 52 80 66 49 2 -22 -26 -23 -3 24 42 44 60 37 35 29 45 20 45 57 9 51 28 17 17 36 28 23 75 76 71 23 98 12
54 76 104 80 73 33 -5 15 27 45 52 64 54 30 62 33 38 40 62 82 114 66 29 30 20 15 20 33 -2 9 20 20 44 50 31 7 34 13 38 46 35 52 43 -5 54 24 54 49 103 66 37 99 78 75
6 40 58 62 51 125 20 30 28 48 70 58 42 36 60 21 16 43 61 57 83 65 51 51 7 5 15 4 29 55 -1 32 30 29 13 12 18 -5 5 33 96 55 59 53 116 45 31 117 130 97 55 104 124 144
4 18 41 22 51 103 114 69 50 77 62 58 35 50 45 40 12 38 41 41 31 26 44 57 45 1 -18 -9 15 28 22 11 -17 25 10 14 2 -5 -16 13 29 -34 -18 13 62 50 34 46 110 90 76 133 214 185
9 12 39 59 -11 -7 91 81 85 129 60 55 11 32 43 25 28 70 57 30 28 28 14 3 19 -12 -13 11 21 53 45 9 37 27 15 -7 -20 -7 -14 17 5 16 0 -16 -34 2 47 26 99 123 93 91 143 115
17 9 37 62 23 -32 34 103 74 40 11 31 12 25 34 40 97 94 64 48 38 39 16 18 -12 2 -1 40 62 68 49 58 50 26 19 13 15 -11 -22 30 -17 7 10 13 2 -23 -5 66 93 123 78 65 64 76
13 13 40 46 -62 33 56 56 47 37 32 42 30 36 15 36 91 56 -11 25 18 61 22 5 -19 -16 8 21 33 76 51 39 26 29 21 19 0 -9 -31 17 43 8 -28 15 -21 -22 -27 4 57 82 91 87 148 150
18 13 23 39 -3 53 45 41 63 39 39 54 50 65 73 105 68 23 19 -6 80 40 37 -11 -13 -3 15 7 29 10 34 29 30 21 38 18 7 -16 26 38 30 19 -17 -24 -67 -19 -19 5 29 50 71 98 118 156
13 10 44 76 19 65 54 54 66 40 67 60 116 140 92 57 35 54 35 20 23 4 -5 -49 -42 -18 -3 12 7 3 56 16 2 16 36 24 9 78 113 102 45 14 -5 -7 -19 -8 -8 -7 7 25 53 64 83 111
22 38 81 30 31 45 38 35 45 79 81 165 118 80 55 21 46 68 86 65 55 -1 -35 -21 39 25 -27 2 4 -17 -6 10 12 21 20 7 21 76 77 67 62 58 44 30 19 9 14 1 14 34 34 43 51 58
60 66 58 29 34 45 62 38 48 193 122 83 88 69 73 59 84 90 71 74 36 0 -14 1 2 9 -10 -7 -3 -14 -3 -23 6 36 -2 10 47 53 50 56 64 64 60 40 40 32 28 33 29 18 28 36 42 41
44 48 48 43 26 42 58 -20 106 68 88 105 80 89 81 66 49 65 44 75 35 4 16 39 3 -12 -13 -18 -19 -6 2 25 -22 1 28 46 30 24 19 15 42 53 58 54 46 40 40 39 38 43 40 50 45 44
69 68 56 26 14 13 25 51 46 79 91 37 102 62 89 46 34 35 61 76 75 43 16 5 8 11 5 -14 -10 -4 -21 0 -17 5 45 30 44 41 33 17 18 33 39 40 35 26 26 33 34 30 24 26 28 44
54 48 44 45 43 36 28 32 51 72 -45 108 131 64 32 34 44 50 57 68 90 79 37 12 7 10 2 3 -5 -7 -20 1 25 17 36 47 47 38 33 29 29 29 26 27 28 36 37 33 39 52 64 68 70 71
45 44 53 30 32 38 88 123 95 89 -1 73 74 33 33 33 30 55 72 86 102 74 48 27 21 14 2 28 8 20 15 24 32 36 46 50 51 48 37 35 33 23 24 23 17 18 21 32 44 49 57 71 81 90
59 85 27 32 43 40 97 154 127 25 -2 57 45 43 56 55 57 66 84 71 83 58 52 47 25 24 42 40 37 55 36 54 71 68 60 67 62 55 38 37 38 37 35 35 38 45 44 34 30 46 68 72 78 90
56 38 17 20 103 123 139 104 76 34 25 17 36 38 32 46 60 80 70 72 78 61 69 84 71 25 48 46 48 61 89 112 112 106 102 93 79 75 73 62 46 34 39 46 49 48 54 60 65 75 77 79 72 77
43 40 9 42 109 149 108 54 44 21 14 1 15 28 33 51 79 58 60 61 74 87 70 71 76 70 91 97 98 109 120 107 102 99 87 83 90 90 77 64 53 49 49 36 31 47 59 71 74 74 73 60 59 53
25 -15 -4 57 88 87 48 31 36 -4 -8 4 26 26 24 46 53 76 78 66 71 69 77 83 88 86 99 127 153 152 156 134 121 109 109 105 92 76 72 57 55 50 54 63 68 58 59 59 60 54 51 48 51 64
2 29 74 92 -6 9 40 2 -12 -24 -10 15 17 34 19 27 32 39 41 57 61 78 83 108 132 152 168 162 164 155 161 148 147 141 130 108 95 81 73 71 63 63 70 67 68 71 68 81 61 53 50 53 45 41
193 126 182 78 46 58 23 44 16 -2 22 17 28 24 8 5 9 17 18 81 96 110 125 120 121 111 116 125 124 131 121 121 124 122 128 102 89 82 80 73 65 71 72 72 70 70 69 59 41 33 32 39 21 30
107 118 131 105 26 18 -12 50 33 24 -12 -12 0 -12 -21 -25 -31 -16 14 55 75 80 79 89 93 96 98 89 88 94 87 77 90 99 102 103 97 84 85 86 75 84 85 85 67 74 74 50 38 45 37 28 36 39
142 72 42 0 -24 -28 3 2 8 -12 -13 -13 -21 -26 -29 -23 -6 -4 12 34 63 54 51 50 35 48 52 56 65 71 71 70 88 92 77 83 89 88 78 74 67 63 61 54 58 59 55 56 42 43 46 45 50 49
25 36 7 -31 -7 -22 -20 -17 -7 -11 -9 -8 -14 -16 -17 -3 -5 3 17 36 38 29 21 17 17 20 41 53 59 70 58 57 80 95 91 73 76 66 66 66 69 60 48 44 48 44 44 40 40 40 41 42 45 49
-22 22 -4 -11 -8 -14 -20 -29 -17 -14 -15 -11 -17 -14 -1 -2 2 7 9 20 13 3 6 10 21 37 44 45 59 66 72 66 65 83 87 74 75 69 70 67 61 65 53 44 41 36 33 30 29 27 30 33 37 33
-29 -11 -3 24 12 -11 -21 -9 -12 -9 -14 -20 -10 1 2 7 6 0 4 -7 -5 2 7 12 18 34 64 74 68 63 58 60 77 97 84 76 72 69 69 68 68 56 35 36 36 37 34 33 29 28 31 35 32 27
-16 5 -12 12 21 40 -21 -11 -18 -22 -26 -18 13 -1 6 1 0 0 -22 -19 17 32 33 39 47 54 67 78 81 87 94 94 100 90 77 69 61 57 54 51 46 35 31 35 32 36 40 40 41 42 40 39 43 37
-2 23 26 34 34 14 11 -2 -26 -30 -8 17 -7 -6 -4 -8 -7 -3 4 15 21 27 44 53 51 57 71 77 77 76 79 79 87 95 84 73 67 66 44 40 40 44 45 45 61 61 61 63 65 67 65 60 58 54
30 72 50 70 61 39 42 51 46 46 46 19 1 20 44 46 19 12 21 19 19 23 37 49 62 61 80 87 99 96 62 48 53 60 68 70 77 66 53 49 45 43 41 43 45 52 57 59 62 63 65 63 59 59
65 78 59 57 32 37 51 69 81 81 46 18 41 69 86 67 27 2 -1 -4 21 47 61 64 55 57 77 86 92 102 100 73 75 77 75 81 72 61 53 43 34 31 36 37 40 42 46 49 52 53 56 61 59 53
68 58 39 35 40 32 66 65 73 63 72 84 84 72 76 70 44 13 -19 14 29 37 27 41 57 64 66 71 73 74 82 103 81 70 64 62 53 39 32 29 28 28 33 37 38 40 42 45 45 45 46 49 49 47
67 71 69 60 60 47 54 78 69 74 97 78 63 53 54 63 65 27 -6 -16 -3 18 41 56 67 98 105 101 102 100 92 84 77 70 61 49 36 32 30 30 29 34 36 38 40 42 46 50 51 50 49 46 43 41